Wind_Speed
46 46 45 44 42 39 37 36 36 36 37 35 34 29 27 35 51 57 55 54 54 51 48 46 43 40 38 35 31 24 20 18 16 8 8 8 8 7 12 9 21 26 15 21 27
51 49 48 47 46 43 40 38 37 38 39 40 39 36 32 33 42 57 59 55 54 53 51 48 47 44 40 38 33 27 25 29 13 12 12 2 3 10 11 14 26 20 16 22 24
55 54 54 52 50 48 45 41 39 38 42 43 44 42 38 35 39 49 59 58 54 53 51 50 52 49 46 41 35 31 30 30 22 15 13 12 7 12 13 21 20 18 17 22 22
64 62 62 59 57 53 50 48 44 41 42 46 47 47 45 42 40 45 55 60 58 55 50 50 51 50 48 44 39 36 32 34 29 26 18 19 18 12 22 17 16 15 13 21 23
67 69 69 66 64 61 57 53 50 47 45 46 50 51 51 48 46 44 49 58 62 59 55 52 53 51 51 47 44 40 38 36 35 31 29 24 22 18 22 17 12 14 14 25 20
65 65 68 70 72 69 66 62 58 53 50 49 51 55 56 55 52 49 49 55 60 63 59 57 52 49 47 48 49 44 41 41 41 39 32 24 18 16 21 11 13 14 15 17 11
65 64 61 63 70 74 74 71 67 63 59 55 54 55 56 58 58 56 54 54 59 62 64 58 56 55 52 52 46 46 47 45 44 44 39 32 20 25 21 23 18 20 16 10 9
59 58 61 66 65 69 73 76 76 72 67 64 60 58 57 61 62 61 60 59 58 63 62 61 60 58 55 53 52 51 50 47 48 44 39 40 34 32 22 16 21 17 17 10 10
48 49 49 56 68 68 70 74 79 79 76 73 68 63 62 63 62 65 66 63 61 60 61 61 65 64 60 59 57 56 53 49 48 46 42 37 36 40 33 24 31 21 24 15 15
52 44 41 44 58 73 76 76 80 82 82 80 75 71 67 66 65 64 69 69 66 62 60 63 67 67 66 65 63 60 56 53 52 48 46 43 39 39 34 29 31 27 25 27 21
70 49 40 38 41 52 69 76 78 81 83 84 82 77 74 72 71 68 67 70 69 68 65 65 65 67 70 69 68 64 62 59 55 51 50 47 46 45 44 41 39 36 32 28 23
70 67 39 36 36 39 52 66 79 80 84 85 84 83 80 77 75 74 70 69 70 71 70 68 68 69 68 69 69 67 68 65 61 56 53 51 49 48 46 48 44 41 39 35 28
68 63 37 33 36 38 41 51 69 85 85 86 87 88 85 81 80 78 77 73 72 70 72 72 75 70 68 66 67 68 72 70 65 60 58 55 55 53 51 48 45 42 42 38 29
70 51 34 31 35 37 40 44 55 76 85 85 89 89 91 87 84 82 81 79 77 74 73 75 75 73 70 69 68 66 71 72 69 65 62 59 58 57 53 53 50 47 44 41 36
71 44 31 32 33 36 40 42 47 60 79 86 86 91 91 92 88 86 84 83 81 78 74 75 76 76 74 73 71 73 71 69 63 65 64 61 60 61 60 59 57 52 47 44 40
69 39 28 27 30 35 40 43 45 52 64 84 88 90 92 91 93 91 89 87 84 81 80 79 77 77 78 76 72 74 73 72 66 61 61 62 61 62 67 67 64 57 52 47 44
70 38 30 24 26 32 39 43 44 47 54 70 85 89 89 92 93 96 94 91 87 83 82 81 80 78 78 77 77 76 75 75 72 66 64 62 62 66 71 66 63 59 52 50 46
70 41 32 23 22 28 36 43 45 46 51 60 75 87 93 91 93 93 94 93 90 88 84 84 82 82 81 80 78 79 77 75 73 70 69 68 66 70 68 65 64 59 60 56 50
75 45 35 23 19 22 28 40 45 49 51 53 62 78 91 94 92 92 91 93 92 91 89 88 85 84 83 84 83 82 80 78 76 74 72 73 73 74 70 64 61 57 58 58 55
81 50 33 23 18 18 25 35 44 48 50 49 55 69 83 93 96 93 91 91 91 91 91 91 91 89 88 87 87 86 83 82 80 79 77 78 80 73 72 66 60 56 56 56 58
77 53 35 25 19 18 23 30 39 46 49 49 50 58 73 86 94 95 95 95 94 93 93 95 96 96 95 93 89 88 86 85 84 85 84 84 81 74 71 68 63 60 57 54 52
69 53 36 25 17 17 20 26 33 42 45 48 47 53 63 74 85 94 94 94 93 92 93 97 98 100 99 98 95 94 91 88 88 88 89 87 86 79 74 70 69 65 64 60 54
64 53 39 29 16 13 18 24 30 36 44 47 47 48 57 66 74 83 91 92 94 95 96 98 100 102 100 99 97 97 96 95 93 93 92 90 84 84 80 75 72 71 69 67 62
66 55 39 28 21 15 16 23 29 34 39 44 48 49 51 59 67 75 83 88 93 95 95 97 100 103 102 101 99 99 99 99 101 100 98 91 86 86 85 81 79 77 74 72 69
72 54 43 28 21 17 15 18 26 33 37 41 46 51 54 54 61 69 77 82 86 91 95 96 96 98 102 103 102 101 103 104 104 105 104 99 96 89 91 87 84 81 81 77 76
79 59 44 31 21 16 14 14 19 29 34 38 43 45 51 56 57 61 70 77 82 87 91 95 96 98 99 101 103 105 107 108 108 107 106 104 101 99 98 93 90 85 84 83 81
81 61 47 34 21 15 13 12 14 20 27 33 39 43 47 50 56 60 62 67 76 83 87 91 94 97 97 99 102 106 110 113 112 110 108 108 104 102 102 102 97 93 89 87 86
Wind_Direction
267 265 263 260 259 258 255 251 245 241 237 236 233 221 221 214 211 211 209 208 209 204 205 206 210 214 215 214 212 206 210 172 201 183 176 220 273 278 284 297 328 326 339 343 1
266 263 261 261 257 255 253 251 245 240 234 231 231 226 217 217 213 215 212 214 213 209 209 210 212 214 218 216 213 207 202 187 186 184 197 166 67 140 250 303 310 310 344 2 7
262 261 259 255 256 253 251 248 246 240 235 230 228 227 221 217 217 215 216 217 217 216 214 214 216 214 219 218 215 208 203 201 196 178 157 136 157 254 241 278 304 293 317 347 4
264 261 258 254 253 250 248 246 244 240 236 231 228 227 224 217 218 216 216 217 220 220 217 218 218 219 220 221 218 214 207 207 203 191 182 175 196 226 216 252 265 294 309 332 355
269 262 259 255 253 249 246 243 242 239 236 232 229 227 225 222 217 220 218 218 219 221 222 221 219 218 221 223 218 215 212 215 212 211 207 211 226 241 217 214 233 286 321 322 342
275 270 265 258 254 249 246 242 240 238 235 232 230 228 227 224 221 218 221 219 219 220 223 224 224 224 223 223 222 218 216 215 214 213 213 207 197 210 186 207 248 267 290 314 348
279 276 271 261 253 249 244 241 238 237 234 234 231 230 228 226 223 220 219 222 218 220 222 224 226 226 225 225 223 223 221 214 215 215 215 215 202 204 194 229 246 260 258 307 312
288 278 270 262 252 245 243 240 237 235 233 232 232 229 229 228 224 222 221 220 221 219 219 222 225 226 227 227 225 224 222 221 219 219 217 220 223 206 222 234 247 255 249 317 313
308 287 275 256 244 239 238 236 235 233 232 231 229 230 228 229 226 224 224 223 221 221 219 220 223 225 225 227 228 228 224 222 224 221 224 223 220 224 231 226 235 248 243 283 297
326 307 285 260 247 240 239 235 229 230 229 229 228 227 228 228 227 225 226 223 224 220 219 222 223 225 226 226 227 228 227 225 224 222 223 224 217 218 226 234 233 244 249 265 280
337 318 292 266 256 246 237 233 231 226 227 227 228 227 227 226 226 225 225 226 225 223 220 221 224 226 227 228 228 228 229 228 227 226 227 226 227 222 228 235 244 251 257 258 265
335 327 296 266 260 250 240 234 230 229 226 225 225 227 226 226 226 226 224 225 225 225 223 222 223 225 227 229 230 231 230 229 228 226 230 230 227 230 233 235 239 243 249 251 249
334 329 297 267 259 254 243 235 228 227 226 223 222 225 225 224 224 224 226 224 225 224 224 224 226 225 226 229 231 232 234 230 227 227 227 229 233 231 235 238 237 237 242 244 248
337 327 290 271 260 252 246 236 229 224 225 225 222 222 223 223 224 223 224 225 224 225 224 224 227 227 226 227 229 230 234 232 229 228 229 229 231 234 234 238 239 237 237 238 241
341 327 290 273 261 250 242 238 231 225 222 223 224 223 221 222 223 223 223 224 225 224 226 226 226 227 227 227 228 230 233 235 230 229 229 230 231 235 236 236 238 238 236 236 239
342 330 304 281 261 245 238 236 232 228 223 221 222 223 222 221 222 223 223 223 224 224 225 226 227 227 227 227 227 230 231 235 233 230 229 227 230 233 235 237 237 236 235 234 240
343 333 314 292 261 242 232 231 232 229 226 220 222 223 222 222 222 223 224 225 226 226 226 228 228 228 228 228 227 228 229 232 234 230 230 228 227 231 234 235 238 238 236 237 236
345 337 323 302 266 242 230 227 228 229 228 223 219 221 223 224 223 224 225 225 226 226 227 228 228 229 228 229 228 229 229 230 232 231 231 229 227 231 232 232 234 233 237 239 237
347 341 331 309 275 247 232 225 224 227 228 226 222 220 220 220 222 224 226 226 226 226 227 229 228 229 229 228 229 229 228 229 230 231 230 231 228 226 233 229 231 230 233 234 233
347 343 335 315 285 252 238 225 221 224 229 227 224 220 218 219 220 221 222 225 226 226 227 229 230 229 229 229 229 229 229 230 229 229 230 231 230 228 230 232 231 231 232 232 234
349 346 341 326 292 255 234 233 223 222 226 225 225 223 220 218 219 220 220 220 223 224 225 227 229 229 229 230 230 231 228 229 230 230 229 230 233 229 230 231 232 231 231 233 233
350 350 343 335 303 266 241 231 226 221 222 225 224 222 219 220 219 220 220 221 223 225 227 227 228 230 229 229 230 231 231 229 229 230 230 230 231 231 227 228 230 230 231 229 231
353 353 346 336 315 281 254 237 228 226 222 223 225 225 222 220 220 220 221 221 222 224 225 227 228 230 230 230 230 232 233 233 231 230 231 230 228 233 231 224 225 227 229 229 227
354 353 351 337 321 293 256 246 232 225 227 225 222 224 222 221 222 222 224 223 223 224 227 228 229 231 231 230 230 231 231 233 233 232 232 231 228 230 232 230 224 223 223 225 228
354 353 352 346 332 311 275 248 237 231 226 228 226 224 226 222 222 223 224 225 226 227 227 229 230 232 233 231 231 232 232 232 232 232 233 231 231 228 231 229 228 226 222 221 224
355 354 354 351 341 325 299 268 247 236 233 229 231 229 229 228 224 223 225 225 226 228 229 230 231 233 235 235 233 232 233 234 233 233 234 233 230 228 230 230 228 225 226 223 220
354 355 354 353 347 332 317 289 265 247 239 235 234 232 231 230 230 227 226 227 229 229 230 232 231 233 234 236 237 236 233 234 234 233 233 233 232 230 229 231 228 227 224 224 223
Height
10901 10901 10901 10902 10904 10906 10908 10910 10912 10915 10918 10922 10925 10928 10929 10931 10935 10940 10945 10949 10954 10957 10962 10967 10973 10977 10980 10985 10988 10993 10997 11000 11001 11002 11004 11004 11005 11007 11004 11000 11003 11004 11001 10997 10993
10889 10889 10890 10891 10893 10896 10899 10901 10903 10906 10909 10912 10916 10921 10923 10926 10930 10933 10939 10942 10949 10954 10958 10963 10966 10972 10975 10980 10985 10989 10994 10997 10999 11001 11003 11004 11005 11007 11001 10998 11003 11005 11002 10997 10994
10873 10874 10876 10877 10880 10884 10888 10891 10894 10896 10899 10903 10907 10911 10916 10920 10923 10927 10930 10936 10943 10948 10953 10957 10959 10965 10969 10975 10982 10986 10990 10995 10998 11000 10999 11002 11004 11010 11010 11004 11003 11005 11004 11000 10995
10859 10859 10861 10863 10867 10870 10874 10879 10883 10886 10889 10893 10896 10901 10906 10912 10916 10919 10923 10929 10935 10940 10946 10950 10954 10959 10964 10971 10978 10982 10987 10991 10995 10997 10996 10999 11003 11007 11007 11007 11003 11003 11005 11002 10996
10839 10839 10842 10846 10851 10855 10861 10864 10869 10875 10878 10882 10885 10890 10894 10902 10906 10911 10915 10920 10926 10932 10939 10943 10947 10953 10958 10965 10971 10977 10982 10984 10989 10991 10994 10995 10998 11001 11005 11004 11000 11000 11002 11002 10998
10817 10818 10822 10826 10829 10836 10843 10849 10854 10861 10865 10869 10873 10877 10883 10890 10897 10902 10907 10910 10917 10923 10929 10936 10943 10949 10953 10956 10962 10970 10974 10976 10980 10984 10987 10991 10994 10998 11000 11003 11000 10999 11000 11001 10997
10800 10798 10798 10800 10804 10810 10820 10828 10836 10844 10850 10855 10860 10865 10872 10878 10884 10891 10896 10901 10906 10912 10921 10930 10935 10941 10944 10949 10957 10959 10965 10970 10974 10980 10985 10989 10993 10996 10997 11000 10997 10997 10998 10998 10995
10777 10774 10773 10772 10776 10783 10793 10804 10815 10823 10832 10838 10845 10852 10859 10862 10870 10879 10883 10888 10896 10902 10913 10919 10926 10930 10936 10941 10946 10950 10957 10963 10968 10975 10980 10984 10987 10992 10994 10994 10995 10995 10995 10994 10995
10756 10749 10745 10743 10748 10757 10767 10777 10789 10801 10811 10819 10828 10837 10844 10849 10857 10866 10870 10878 10883 10893 10903 10908 10912 10919 10926 10930 10935 10941 10949 10957 10963 10971 10974 10979 10984 10986 10988 10994 10992 10992 10990 10991 10993
10741 10731 10724 10721 10722 10731 10740 10751 10762 10775 10788 10797 10809 10820 10827 10836 10843 10851 10857 10863 10872 10883 10891 10895 10900 10907 10912 10918 10924 10932 10941 10949 10955 10963 10967 10969 10975 10979 10983 10986 10988 10989 10989 10990 10991
10727 10715 10707 10703 10703 10707 10713 10726 10740 10753 10765 10778 10788 10801 10807 10817 10825 10835 10843 10851 10860 10869 10877 10883 10890 10893 10899 10908 10915 10924 10930 10938 10949 10955 10959 10964 10969 10973 10975 10978 10982 10985 10986 10989 10989
10716 10700 10690 10686 10686 10688 10693 10702 10717 10732 10742 10755 10770 10779 10787 10800 10810 10820 10829 10837 10846 10854 10864 10872 10874 10879 10889 10897 10906 10913 10918 10926 10938 10948 10953 10958 10962 10965 10967 10968 10973 10977 10980 10985 10988
10705 10684 10674 10670 10670 10670 10675 10682 10691 10702 10717 10731 10746 10757 10769 10782 10792 10802 10811 10822 10829 10841 10850 10856 10856 10871 10880 10888 10894 10901 10901 10912 10927 10938 10944 10950 10952 10957 10960 10962 10966 10970 10973 10979 10984
10687 10669 10659 10655 10655 10655 10658 10663 10670 10680 10696 10710 10722 10735 10746 10760 10771 10784 10793 10803 10815 10824 10833 10841 10848 10858 10867 10874 10881 10888 10885 10898 10914 10926 10934 10942 10946 10947 10952 10952 10957 10962 10967 10973 10979
10670 10654 10645 10641 10639 10641 10643 10647 10653 10659 10671 10687 10702 10713 10726 10740 10754 10765 10776 10787 10798 10812 10821 10827 10835 10843 10853 10857 10867 10869 10877 10884 10902 10913 10923 10931 10937 10938 10940 10942 10946 10953 10961 10968 10973
10656 10641 10632 10626 10624 10625 10628 10632 10639 10644 10653 10667 10679 10692 10709 10723 10734 10746 10757 10767 10780 10794 10804 10810 10820 10828 10835 10846 10854 10857 10865 10871 10887 10900 10910 10917 10924 10926 10923 10929 10936 10945 10953 10961 10967
10643 10629 10619 10612 10610 10610 10614 10619 10625 10631 10639 10649 10663 10677 10691 10705 10713 10725 10738 10752 10766 10779 10788 10797 10807 10815 10822 10830 10837 10844 10851 10858 10870 10886 10894 10902 10909 10905 10904 10920 10931 10940 10948 10953 10962
10631 10616 10607 10599 10597 10597 10601 10604 10611 10617 10622 10631 10641 10654 10672 10688 10699 10711 10725 10738 10750 10760 10771 10778 10790 10798 10807 10814 10824 10829 10839 10848 10856 10868 10879 10885 10891 10886 10899 10910 10918 10931 10938 10948 10956
10619 10607 10595 10588 10586 10587 10588 10592 10598 10602 10607 10615 10627 10636 10649 10665 10680 10694 10709 10721 10733 10742 10752 10759 10770 10779 10788 10795 10803 10813 10823 10833 10843 10851 10860 10864 10869 10873 10887 10903 10911 10923 10929 10937 10946
10610 10595 10587 10579 10575 10575 10578 10579 10584 10590 10596 10605 10611 10619 10630 10642 10656 10672 10689 10702 10713 10725 10736 10741 10749 10759 10766 10775 10784 10796 10808 10817 10826 10833 10841 10840 10845 10868 10879 10894 10908 10917 10922 10930 10937
10603 10587 10577 10569 10565 10565 10566 10569 10575 10579 10585 10591 10597 10605 10613 10623 10637 10651 10663 10677 10687 10699 10712 10717 10722 10733 10744 10755 10768 10778 10789 10800 10807 10814 10818 10819 10836 10860 10873 10886 10897 10908 10914 10920 10928
10593 10579 10568 10562 10556 10556 10558 10561 10565 10570 10575 10577 10584 10590 10597 10607 10619 10631 10646 10661 10673 10684 10693 10697 10702 10708 10722 10735 10750 10759 10770 10781 10786 10792 10797 10809 10822 10842 10860 10874 10883 10894 10903 10910 10917
10586 10573 10562 10554 10551 10550 10550 10551 10555 10558 10563 10568 10574 10580 10587 10596 10606 10617 10627 10642 10651 10659 10667 10673 10681 10684 10701 10717 10732 10742 10751 10760 10768 10771 10776 10790 10818 10827 10842 10857 10868 10879 10890 10898 10906
10577 10567 10558 10547 10542 10542 10542 10543 10546 10550 10552 10558 10565 10569 10574 10583 10593 10602 10611 10622 10631 10642 10649 10655 10660 10666 10681 10697 10709 10719 10726 10734 10741 10749 10758 10780 10799 10813 10824 10839 10850 10859 10872 10883 10891
10577 10562 10552 10545 10538 10534 10532 10534 10536 10539 10543 10548 10553 10558 10562 10571 10579 10587 10595 10603 10614 10624 10631 10639 10647 10652 10658 10674 10687 10697 10700 10707 10713 10725 10736 10762 10773 10796 10801 10818 10830 10844 10852 10863 10872
10574 10559 10547 10539 10533 10529 10526 10525 10527 10530 10534 10539 10542 10548 10553 10559 10567 10574 10580 10587 10594 10602 10610 10619 10628 10632 10640 10649 10661 10669 10675 10680 10693 10706 10721 10734 10753 10771 10781 10796 10809 10825 10836 10847 10856
10569 10556 10543 10534 10528 10524 10522 10520 10519 10522 10525 10528 10531 10535 10541 10546 10552 10561 10568 10573 10579 10585 10593 10598 10608 10613 10621 10625 10633 10642 10649 10654 10669 10684 10696 10710 10728 10746 10762 10771 10788 10801 10815 10827 10839